ARIANE 2 DEB, 28565

Orbit data source: Space-Track

ARIANE 2 DEB, 28565 is space debris in HEO originally from a launch on Fri, 27 Jan 1989 UTC launched from the French Guiana (FRGUI). Debris objects in space refer to the collection of defunct objects orbiting the Earth. Examples of debris include non-operational satellites, rocket bodies, and fragments generated from explosions, collisions, or faulty payload assembly.

Loading next visibility...
Identifier
28565, 1989-006AG
Orbit
HEO
Country
Flag of FRFR
Related business
Manufacturer
EADS/LV
Mission
Spacecraft
Bus & Motor
Unknown
Mass
Unknown
Launch date (UTC)
1989-01-27 (37 years ago)
Launch vehicle
Unknown
Launch site
French Guiana (FRGUI)
Object type
Payload
Rocket body
Debris
Shape & HBR
Unknown shape, 0.3 m
Radar Cross Section
Medium (>0.1 m² and <1 m²)

Expand to show TLE details & history
Last TLE update: 6 days ago

TLE from 6 days ago
0 ARIANE 2 DEB
1 28565U 89006AG  26066.31371762  .00000019  00000-0  53130-3 0  9994
2 28565   8.6440 347.4698 7081526 253.9092  23.3342  2.39486848188163
Epoch: 2026-03-07T07:31Z
TLE epoch observation values (Epoch: 2026-03-07T07:31:45.202Z)
Latitude
0.00028°
Longitude
69.49577°
Altitude
8,302.987 km
Speed
6.116 km/s
True Right ascension
23h 09m 53s
True Declination
0° 00' 01"
Sunlit
Object was in daylight at epoch
Visualization orbit readout
Latitude
Unknown
Longitude
Unknown
Altitude
Unknown
Speed
Unknown
Apparent Right ascension
Unknown
Apparent Declination
Unknown
Sunlit
N/A
Visualization observer readout
Local Sidereal Time
11:28:51
Azimuth
Unknown
Elevation
Unknown
Doppler factor
Unknown
Orbital elements
Apogee altitude
33,940.138 km
Perigee altitude
510.465 km
Semi-major axis
23,603.438 km
Eccentricity
0.70815
Inclination
8.644°
RAAN
347.4698°
Arg. of periapsis
253.9092°
True anomaly
106.10831°
Mean anomaly
23.3342°
Eccentric anomaly
57.58726°
Mean motion
0.59852 °/min
Orbital period
601.48 mins
BSTAR
0.0005313
Loading maneuver chart data...
Computing Atmospheric mass density...
Loading historical data...
Loading historical data...
Loading historical data...
Loading historical data...
Loading historical data...
Loading historical data...
Loading historical data...

Documentation

Showing up to 5 results
|